Simultaneous Nadir Overpasses (SNOs) Predictions

Prediction of SNOs between NOAA-19 and TERRA Satellite Orbit:

Table of predicted SNOs for the next 14.0 days since TLE Epoch: 1/11/2016
Index Date (NOAA-19) Time (NOAA-19) Lat,Lon (NOAA-19) SZA (NOAA-19 ) Date (TERRA) Time (TERRA) Lat,Lon (TERRA) SZA (TERRA ) Distance(km) Time Diff (sec)
1 01/11/2016 10:38:28 73.04, 25.92 94.83 01/11/2016 10:39:24 73.05, 25.83 94.84 2.96 56
2 01/11/2016 11:29:31 -72.99,-166.72 85.23 01/11/2016 11:28:53 -72.98,-166.68 85.25 1.69 38
3 01/13/2016 16:12:42 -73.05, 122.40 85.53 01/13/2016 16:13:10 -73.03, 122.36 85.55 2.05 28
4 01/13/2016 17:03:39 72.97, -70.18 94.40 01/13/2016 17:02:37 72.95, -70.17 94.37 2.71 62
5 01/15/2016 20:56:09 -73.90, 49.62 85.09 01/15/2016 20:57:14 -73.76, 52.80 85.18 99.65 65
6 01/15/2016 21:46:50 73.02,-141.03 94.05 01/15/2016 21:46:53 73.05,-141.05 94.08 3.17 3
7 01/15/2016 22:37:40 -72.35, 27.64 86.60 01/15/2016 22:36:33 -72.40, 25.35 86.60 77.18 67
8 01/18/2016 02:30:02 73.12, 147.99 93.72 01/18/2016 02:31:09 73.14, 148.06 93.75 3.18 67
9 01/18/2016 03:21:03 -73.03, -44.56 86.38 01/18/2016 03:20:39 -73.02, -44.54 86.39 0.90 24
10 01/20/2016 08:04:14 -73.11,-115.48 86.76 01/20/2016 08:04:55 -73.11,-115.44 86.76 1.34 41
11 01/20/2016 08:55:12 73.01, 51.98 93.15 01/20/2016 08:54:22 73.02, 52.02 93.15 1.52 50
12 01/22/2016 13:38:23 73.07, -18.91 92.72 01/22/2016 13:38:38 73.09, -18.90 92.74 2.25 15
13 01/22/2016 14:29:22 -72.93, 148.66 87.43 01/22/2016 14:28:08 -72.98, 148.51 87.39 7.10 74
14 01/24/2016 18:21:40 73.43, -90.49 92.56 01/24/2016 18:22:51 73.32, -89.51 92.46 33.45 71
15 01/24/2016 19:12:34 -73.07, 77.60 87.81 01/24/2016 19:12:24 -73.05, 77.57 87.84 2.79 10




NCC Satellite Simultaneous Nadir Overpasses (SNOs) Prediction Service
